Voltar ao catálogo

STARLINK-32784

AtivoComunicaçõesVLEO
NORAD 62607·PAYLOAD·🇺🇸 United States

Lançado Jan 13, 2025 de Cape Canaveral Space Force Station

Loading…

Próximas Passagens (próximas 24 horas)

TLE

AtualizadoSource: CelesTrak SupGP

Época: Sep 15, 2026, 02:14 UTC

1 62607C 25008W   26258.09354167  .00068117  00000+0  50887-3 0  2585
2 62607  42.9826 249.2766 0027059 117.4295 348.2539 15.71198891    17

Acompanhe STARLINK-32784 em tempo real com AllMySat

Download on the App Store